Vorticity
nan nan nan nan nan nan nan nan nan nan nan nan nan nan nan nan nan nan nan nan nan nan nan nan nan nan nan nan nan nan nan nan nan nan nan nan nan nan nan nan nan nan nan nan nan nan nan nan nan
nan 7 5 9 7 3 8 4 5 6 2 10 3 6 6 13 16 21 26 3 6 5 4 6 6 7 6 6 6 6 6 6 5 5 5 5 5 5 4 5 6 6 6 5 5 5 5 5 nan
nan 11 8 6 4 4 1 6 5 3 7 6 -0 1 8 16 12 9 13 11 5 5 6 7 7 7 7 6 6 6 6 6 5 5 5 5 5 5 4 5 5 6 5 5 5 5 5 5 nan
nan 9 6 7 7 3 -2 -0 -3 9 16 -1 2 -0 6 9 9 15 10 4 4 5 9 6 7 7 7 6 6 6 6 6 6 6 5 5 5 4 4 5 5 5 5 5 5 5 5 5 nan
nan 6 9 8 3 0 11 8 1 3 6 7 1 2 3 8 6 10 7 5 7 6 5 7 6 8 6 6 6 5 6 6 6 5 5 5 5 5 5 5 5 5 5 6 5 5 5 6 nan
nan 6 6 6 8 10 4 -0 5 9 5 7 5 8 2 4 6 8 7 4 5 9 4 5 5 7 7 6 6 6 6 6 6 5 5 5 5 5 5 5 6 6 6 6 6 5 5 5 nan
nan 5 2 2 7 10 12 9 6 6 6 5 5 8 6 0 9 8 6 6 5 5 6 5 5 5 6 5 6 6 6 6 6 6 6 6 5 5 6 6 6 6 6 6 6 6 5 5 nan
nan 4 8 4 4 7 6 10 15 17 8 3 5 6 4 13 15 8 6 6 4 4 7 5 5 4 3 5 6 6 6 7 7 6 7 7 4 5 5 4 7 7 6 6 6 6 6 5 nan
nan 4 10 7 3 5 3 4 6 16 15 5 6 9 10 18 8 7 6 5 5 5 7 7 6 5 6 5 5 6 5 4 4 5 6 4 4 7 5 6 8 5 5 5 5 5 6 6 nan
nan 4 5 4 7 3 3 7 11 7 6 9 7 16 6 2 5 4 4 5 6 6 5 6 7 6 5 5 6 4 4 4 4 5 5 2 7 8 8 12 6 5 5 5 6 7 6 5 nan
nan 0 4 5 1 3 7 8 13 10 7 9 9 6 3 -1 4 6 7 6 13 -1 5 8 6 6 4 5 3 6 7 7 9 8 6 5 7 7 8 8 7 7 7 6 9 6 7 8 nan
nan 7 1 -0 3 8 8 4 11 7 9 8 10 4 8 9 7 8 4 2 9 13 6 8 6 4 3 7 7 7 6 7 8 9 6 5 6 9 8 6 8 6 8 8 6 7 10 7 nan
nan 5 7 5 4 4 4 11 7 6 9 -1 6 14 10 10 10 7 8 9 5 11 12 8 5 5 7 6 7 6 7 7 8 9 6 5 6 7 6 7 10 9 7 11 8 12 11 10 nan
nan 6 7 8 7 6 7 6 6 11 2 9 7 2 12 7 3 6 8 8 18 7 17 8 3 5 8 5 6 5 9 9 8 9 10 6 4 8 7 7 6 10 11 12 11 10 9 10 nan
nan 8 14 12 6 5 6 7 11 6 8 8 8 6 3 2 5 9 5 9 8 9 1 2 10 9 7 8 8 7 8 8 7 11 13 7 6 8 6 7 9 11 10 8 9 7 9 10 nan
nan 14 11 8 9 12 9 5 11 5 10 10 8 7 7 8 6 4 8 10 8 11 8 11 3 4 6 7 7 6 8 9 8 11 11 8 8 5 8 9 9 9 9 7 7 7 6 6 nan
nan 13 9 6 12 11 7 6 7 13 9 7 9 8 9 5 5 6 9 13 16 7 0 2 10 10 5 6 7 6 7 8 10 10 9 11 8 7 9 7 7 7 7 7 7 8 7 6 nan
nan 4 4 9 11 10 7 8 7 9 11 12 7 8 7 8 7 5 9 13 5 3 13 15 7 7 4 4 7 8 5 7 8 9 11 11 9 9 8 9 8 7 7 7 7 6 6 7 nan
nan 6 6 7 2 13 11 8 9 6 11 12 11 7 8 7 8 8 8 6 1 7 7 12 7 11 7 8 8 8 6 6 7 9 10 9 9 9 8 8 8 6 9 8 6 5 7 8 nan
nan 4 4 9 15 9 7 12 10 9 6 8 12 11 7 9 8 8 9 5 7 7 6 4 7 4 3 8 7 8 10 9 8 8 7 8 10 8 9 7 7 8 6 6 6 8 7 9 nan
nan 7 5 7 8 13 15 13 14 12 8 6 8 11 12 10 8 7 6 12 11 12 16 8 13 5 7 7 4 7 9 10 9 8 7 8 7 7 9 10 9 5 6 9 7 7 6 9 nan
nan 11 10 6 6 11 5 15 17 13 7 7 11 10 11 13 10 9 7 7 5 10 12 16 14 9 9 7 8 9 8 6 8 9 9 10 10 9 8 8 7 8 8 10 11 7 6 9 nan
nan 11 9 11 8 6 8 5 17 13 8 11 9 6 9 14 11 10 6 8 8 6 10 8 7 6 8 7 8 7 9 9 10 9 9 7 7 10 13 13 9 6 8 7 10 10 10 10 nan
nan 10 18 15 15 16 13 7 9 10 9 7 6 10 12 11 12 9 7 9 6 8 10 9 9 7 8 8 8 9 11 9 9 8 6 6 6 6 5 9 10 12 11 9 8 8 8 8 nan
nan 13 24 17 11 15 13 5 12 8 8 11 11 9 8 8 13 12 10 6 6 12 10 8 10 11 11 14 12 13 11 8 7 5 7 7 7 11 10 6 6 6 6 8 8 8 8 9 nan
nan 8 6 9 3 8 15 14 1 9 8 8 12 13 11 9 10 11 10 8 10 9 13 10 7 10 13 12 11 13 11 8 7 8 7 7 9 9 9 8 11 13 8 8 7 7 9 8 nan
nan 9 4 11 11 13 15 12 14 10 8 15 13 16 9 8 7 9 18 10 8 11 9 8 9 9 8 9 9 8 8 10 10 9 9 9 10 11 8 9 7 6 9 8 10 11 12 8 nan
nan 9 11 11 16 12 19 19 16 15 5 8 19 18 12 8 13 9 13 16 8 9 8 8 8 8 8 7 8 8 9 11 11 11 10 10 9 8 9 9 9 8 7 8 7 9 7 11 nan
nan 9 6 4 3 14 14 26 20 6 9 12 21 20 19 12 10 13 8 7 9 8 8 8 8 7 8 7 9 11 9 9 9 9 8 9 9 7 8 9 10 8 6 8 7 10 11 8 nan
nan nan nan nan nan nan nan nan nan nan nan nan nan nan nan nan nan nan nan nan nan nan nan nan nan nan nan nan nan nan nan nan nan nan nan nan nan nan nan nan nan nan nan nan nan nan nan nan nan
CAPE
0 0 0 0 0 0 0 0 0 0 0 0 0 0 0 0 443 845 1156 1562 1480 1629 1702 1841 2612 2859 2779 2417 2016 1722 1672 1793 1826 1569 1360 1432 1518 1641 1759 1466 1621 1705 1692 1257 925 762 652 412 317
0 0 0 0 0 0 0 0 0 0 6 0 0 0 0 48 656 317 1153 1989 1964 1976 1551 1618 2619 2786 2690 2345 1885 1702 1777 1904 1796 1610 1417 1438 1661 1640 1795 1511 1465 1485 1110 958 782 594 534 447 381
0 0 0 0 0 0 0 0 0 0 0 0 0 0 0 0 1653 1133 1126 2342 1977 2042 1764 2244 2658 2680 2583 2266 1918 1819 1865 1915 1800 1645 1408 1428 1680 1712 1789 1612 1368 1011 792 782 647 441 437 401 400
0 0 0 0 0 0 0 0 0 0 1 0 0 0 0 0 2053 1657 1169 2281 2104 1666 1610 2308 2537 2540 2454 2282 2037 1948 1986 1908 1767 1685 1461 1420 1631 1752 1871 1796 1453 1052 548 376 434 573 650 489 339
0 0 0 0 0 0 0 0 0 0 0 0 0 0 0 0 1857 1400 1234 2199 2069 1503 2177 2054 2478 2452 2073 2393 2224 2118 2003 1769 1713 1676 1510 1449 1623 1681 1821 1807 1465 1089 760 669 580 595 585 565 456
0 0 0 0 0 0 0 0 0 0 0 0 0 0 0 230 533 1333 1291 1879 1613 2023 1933 1701 2437 2388 2028 2335 2257 2104 1924 1792 1745 1610 1498 1494 1552 1620 1723 1805 1621 1334 932 880 724 679 591 558 477
0 0 0 0 0 0 0 0 0 0 0 0 0 0 0 2 282 1211 1597 1881 1486 2462 1540 1165 1645 2258 2320 2226 2132 2024 1861 1734 1621 1486 1459 1466 1546 1589 1618 1583 1582 1467 1086 1027 984 754 623 548 546
0 0 0 0 0 0 0 0 0 0 0 0 0 0 0 0 291 1336 1692 2001 1640 2235 1125 749 962 1400 1729 1796 2047 1916 1797 1671 1470 1422 1426 1450 1572 1580 1564 1333 1438 1355 1167 994 1016 812 682 606 566
0 0 0 0 0 0 0 0 0 0 0 0 0 0 0 29 333 1581 1939 2057 1783 2116 1320 587 293 511 312 700 1565 1704 1604 1523 1432 1431 1472 1083 316 798 946 578 1363 1580 1146 852 811 749 730 622 490
0 0 0 0 0 0 0 0 0 0 0 0 0 0 0 61 104 1287 2067 2216 1975 2101 1349 572 305 33 5 18 918 797 872 858 785 641 925 391 223 476 178 463 1594 1682 1265 924 821 696 626 353 4
0 0 0 0 0 0 0 0 0 0 0 0 0 0 0 0 1 86 1378 2132 2155 2068 1744 751 578 333 162 231 365 129 229 245 385 451 604 419 168 864 220 871 697 1039 971 539 597 355 126 0 0
0 0 0 0 0 0 0 0 0 0 0 0 0 0 0 0 0 69 344 1167 1907 1522 2024 1155 789 766 824 948 265 412 410 414 325 456 754 398 982 1930 714 647 758 944 739 495 356 34 6 1 13
0 0 0 0 0 0 0 0 0 0 0 0 0 0 0 10 103 277 469 666 1732 2074 2287 1314 1517 1278 1877 1233 819 800 916 792 722 862 1032 630 1126 2292 1912 1732 1364 695 659 885 711 348 120 149 129
0 0 0 0 0 0 0 0 0 0 0 0 0 0 0 0 6 383 662 590 2254 2285 1751 1362 1554 1656 2542 2324 1801 1916 1914 1396 1692 1420 1438 1554 2088 2460 2226 2287 2088 1452 1223 1155 1057 1182 1680 1430 1560
0 0 0 0 0 0 0 0 0 0 0 0 0 0 0 0 0 0 270 613 2311 1721 0 1972 2675 2992 3913 4449 3033 2184 2855 1753 2094 2829 2104 2103 2909 2620 1637 2141 1973 1895 1865 1992 1552 1420 1303 975 591
0 0 0 0 0 0 0 0 0 0 0 0 0 0 0 0 0 0 0 746 2035 1348 0 163 3211 3202 3917 4382 3984 3042 3249 2957 2166 2069 2357 2458 3111 3082 2611 1469 1313 1680 128 120 25 39 28 50 154
0 0 0 0 0 0 0 0 0 0 0 0 0 0 0 0 0 0 0 666 1680 1899 370 1968 3212 3232 3668 3966 4111 3982 3939 3153 3573 2571 1975 2294 2699 2771 2553 2172 1557 134 107 0 0 0 0 0 0
0 0 0 0 0 0 0 0 0 0 0 0 0 0 0 0 0 0 0 713 2237 609 0 13 2642 3017 3764 3690 4053 3399 3605 3817 3163 2617 2496 3041 2373 2753 2814 1969 815 497 403 23 36 0 76 0 0
0 0 0 0 0 0 0 0 0 0 0 0 0 0 0 0 0 0 0 1467 1983 318 533 273 1520 3462 3294 3661 3772 3675 3425 3375 3322 3320 3161 3045 2944 2843 1727 1215 1193 711 268 83 26 0 0 33 0
0 0 0 0 0 0 0 0 0 0 0 0 0 0 0 0 0 0 0 993 1725 5 0 0 156 2790 3625 3785 3860 3279 3550 3226 3077 3076 2908 2635 2446 2202 1855 856 685 415 1 0 0 6 9 98 0
0 0 0 0 0 0 1 0 0 0 0 0 0 0 0 0 0 0 0 13 1079 223 20 378 2371 3508 4247 3640 3217 4330 3906 2957 2698 2731 2463 2331 1963 1629 1332 1102 469 377 416 129 29 37 314 754 748
2 0 0 0 0 0 4 10 0 0 0 0 0 0 0 0 0 0 0 0 837 2768 3086 3407 3753 4733 3878 3385 3468 4013 3228 2719 2652 2166 2238 1681 1503 955 1080 983 761 751 297 79 51 488 801 761 605
10 0 0 0 0 0 0 57 0 0 0 0 0 0 0 0 0 0 0 0 311 1418 2801 3214 3626 4030 3364 3532 4074 3925 3187 2713 2246 1380 680 409 372 491 639 781 780 852 1044 1033 672 531 489 492 147
20 22 9 11 7 36 0 38 11 1 0 0 0 0 0 0 0 0 0 0 65 859 2514 3552 3351 2537 3495 3817 3995 3695 2690 2055 1242 708 369 320 67 74 193 135 458 520 576 453 248 223 59 0 0
49 25 74 60 44 52 7 1 5 0 0 0 0 0 0 0 0 0 0 0 0 501 2300 3402 2815 2706 3172 3749 3730 3776 2583 1554 996 438 341 332 173 57 47 81 167 241 85 5 10 3 0 0 0
162 105 128 54 49 15 11 40 0 0 0 0 0 0 0 0 0 0 0 0 0 1432 2857 2971 2695 1054 1775 2403 1445 1783 1356 920 748 755 347 212 183 70 41 13 7 12 0 0 0 11 0 2 0
126 113 68 165 101 104 34 19 2 0 0 3 0 0 0 0 0 0 0 0 1999 1914 2269 2024 1502 1058 1363 1398 1325 1276 945 552 431 176 65 52 22 0 0 0 0 0 0 0 1 0 1 13 12
143 121 133 410 301 33 47 183 10 0 9 29 5 0 0 0 0 126 1942 1571 1262 1290 1549 1566 1374 1030 696 673 577 536 325 237 127 63 13 13 0 0 0 0 0 0 0 0 5 0 2 3 9
45 164 135 198 135 60 68 41 18 7 0 35 87 2 0 0 1344 1456 1133 805 910 1038 1430 1464 755 531 387 361 181 105 21 12 3 0 0 0 0 0 0 0 0 0 0 8 4 6 0 19 15
64 213 187 245 70 2 19 31 185 23 165 141 384 995 1266 1188 1043 682 723 912 1188 1050 1228 1138 402 246 82 68 23 13 8 4 0 0 0 0 0 0 5 0 0 0 0 0 0 3 3 8 12